Arctic Village, AK

2:18 AM AKST on February 23, 2017 (GMT -0900)
Arctic Village

Weather History for PARC - September, 2013

Change the Weather History Date:

Monday, September 2, 2013

  Actual Average Record
Temperature  
Mean Temperature 38 °F -  
Max Temperature 50 °F 52 °F 72 °F (1990)
Min Temperature 26 °F 30 °F 23 °F (1990)
Degree Days  
Heating Degree Days 27    
Moisture  
Dew Point 21 °F    
Average Humidity 52    
Maximum Humidity 81    
Minimum Humidity 26    
Precipitation  
Precipitation 0.00 in - - ()
Sea Level Pressure  
Sea Level Pressure 29.70 in    
Wind  
Wind Speed 7 mph (ENE)    
Max Wind Speed 15 mph    
Max Gust Speed 16 mph    
Visibility 10 miles    
Events      
Averages and records for this station are not official NWS values.
T = Trace of Precipitation, MM = Missing Value Source: NWS Daily Summary

Daily Weather History Graph

Daily Weather History Graph

Search for Another Location

Airport or City:

Trip Planner

Search our weather history database for the weather conditions in past years. The results will help you decide how hot, cold, wet, or windy it might be!

Date:

Astronomy

Sep. 02, 2013 Rise Set
Actual Time 6:13 AM AKDT 9:07 PM AKDT
Civil Twilight 5:08 AM AKDT 10:11 PM AKDT
Nautical Twilight 3:24 AM AKDT 11:52 PM AKDT
Astronomical Twilight Sun does not rise Sun does not rise
Moon 2:48 AM AKDT (9/2) 7:56 PM AKDT (9/2)
Length of Visible Light 17h 03m
Length of Day
14h 54m
Waning Crescent, 7% of the Moon is Illuminated
Sep 2
Waning Crescent
Sep 5
New
Sep 12
First Quarter
Sep 19
Full
Sep 26
Last Quarter

Hourly Weather History & Observations

Time (AKDT) Temp. Windchill Dew Point Humidity Pressure Visibility Wind Dir Wind Speed Gust Speed Precip Events Conditions
12:16 AM 33.8 °F 28.6 °F 17.6 °F 52% 29.83 in 10.0 mi North 5.8 mph - N/A   Clear
12:36 AM 33.8 °F 27.7 °F 17.6 °F 52% 29.83 in 10.0 mi NNW 6.9 mph - N/A   Clear
12:56 AM 33.8 °F 27.7 °F 17.6 °F 52% 29.82 in 10.0 mi NNW 6.9 mph - N/A   Clear
1:16 AM 32.0 °F 26.4 °F 17.6 °F 55% 29.83 in 10.0 mi North 5.8 mph - N/A   Clear
1:36 AM 32.0 °F 26.4 °F 17.6 °F 55% 29.82 in 10.0 mi North 5.8 mph - N/A   Clear
1:56 AM 30.2 °F 23.4 °F 17.6 °F 60% 29.82 in 10.0 mi NNE 6.9 mph - N/A   Clear
2:16 AM 28.4 °F 21.2 °F 17.6 °F 64% 29.81 in 10.0 mi NNE 6.9 mph - N/A   Clear
2:36 AM 28.4 °F 21.2 °F 19.4 °F 69% 29.81 in 10.0 mi NE 6.9 mph - N/A   Clear
2:56 AM 28.4 °F 22.2 °F 19.4 °F 69% 29.81 in 10.0 mi NE 5.8 mph - N/A   Clear
3:16 AM 28.4 °F 20.4 °F 19.4 °F 69% 29.80 in 10.0 mi NE 8.1 mph - N/A   Clear
3:36 AM 28.4 °F 20.4 °F 19.4 °F 69% 29.80 in 10.0 mi NE 8.1 mph - N/A   Clear
3:56 AM 28.4 °F 21.2 °F 19.4 °F 69% 29.79 in 10.0 mi NE 6.9 mph - N/A   Clear
4:16 AM 28.4 °F 20.4 °F 21.2 °F 74% 29.78 in 10.0 mi ENE 8.1 mph - N/A   Clear
4:36 AM 28.4 °F 20.4 °F 21.2 °F 74% 29.78 in 10.0 mi ENE 8.1 mph - N/A   Clear
4:56 AM 28.4 °F 21.2 °F 21.2 °F 74% 29.78 in 10.0 mi East 6.9 mph - N/A   Clear
5:16 AM 28.4 °F 21.2 °F 21.2 °F 74% 29.77 in 10.0 mi East 6.9 mph - N/A   Clear
5:36 AM 28.4 °F 21.2 °F 21.2 °F 74% 29.77 in 10.0 mi East 6.9 mph - N/A   Clear
5:56 AM 26.6 °F 20.0 °F 19.4 °F 74% 29.77 in 10.0 mi East 5.8 mph - N/A   Clear
6:16 AM 28.4 °F 20.4 °F 19.4 °F 69% 29.77 in 10.0 mi East 8.1 mph - N/A   Clear
6:36 AM 26.6 °F 18.2 °F 19.4 °F 74% 29.76 in 10.0 mi ENE 8.1 mph - N/A   Clear
6:56 AM 26.6 °F 19.1 °F 19.4 °F 74% 29.76 in 10.0 mi ENE 6.9 mph - N/A   Clear
7:16 AM 26.6 °F 18.2 °F 19.4 °F 74% 29.75 in 10.0 mi East 8.1 mph - N/A   Clear
7:36 AM 28.4 °F 19.7 °F 21.2 °F 74% 29.75 in 10.0 mi East 9.2 mph - N/A   Clear
7:56 AM 28.4 °F 19.7 °F 21.2 °F 74% 29.74 in 10.0 mi East 9.2 mph - N/A   Clear
8:16 AM 30.2 °F 21.9 °F 21.2 °F 69% 29.74 in 10.0 mi ENE 9.2 mph - N/A   Clear
8:36 AM 32.0 °F 24.8 °F 19.4 °F 60% 29.74 in 10.0 mi ENE 8.1 mph - N/A   Clear
8:56 AM 33.8 °F 26.4 °F 21.2 °F 60% 29.73 in 10.0 mi East 9.2 mph - N/A   Clear
9:16 AM 33.8 °F 27.0 °F 21.2 °F 60% 29.72 in 10.0 mi ENE 8.1 mph - N/A   Clear
9:36 AM 35.6 °F 28.6 °F 19.4 °F 52% 29.72 in 10.0 mi ENE 9.2 mph - N/A   Clear
9:56 AM 37.4 °F 30.8 °F 19.4 °F 48% 29.71 in 10.0 mi NE 9.2 mph - N/A   Clear
10:16 AM 39.2 °F 32.0 °F 17.6 °F 42% 29.70 in 10.0 mi NE 11.5 mph 16.1 mph N/A   Clear
10:36 AM 39.2 °F 33.6 °F 17.6 °F 42% 29.70 in 10.0 mi NE 8.1 mph - N/A   Clear
10:56 AM 41.0 °F 35.2 °F 17.6 °F 39% 29.70 in 10.0 mi NE 9.2 mph - N/A   Clear
11:16 AM 42.8 °F 37.5 °F 19.4 °F 39% 29.69 in 10.0 mi NNE 9.2 mph - N/A   Clear
11:36 AM 42.8 °F 38.0 °F 17.6 °F 36% 29.69 in 10.0 mi NNE 8.1 mph - N/A   Clear
11:56 AM 42.8 °F 38.0 °F 17.6 °F 36% 29.68 in 10.0 mi NNE 8.1 mph - N/A   Clear
12:16 PM 42.8 °F 40.1 °F 17.6 °F 36% 29.68 in 10.0 mi NE 4.6 mph - N/A   Clear
12:36 PM 44.6 °F 40.2 °F 17.6 °F 34% 29.67 in 10.0 mi NNE 8.1 mph - N/A   Clear
12:56 PM 44.6 °F 41.4 °F 17.6 °F 34% 29.67 in 10.0 mi North 5.8 mph - N/A   Clear
1:16 PM 46.4 °F 43.5 °F 17.6 °F 32% 29.66 in 10.0 mi NNE 5.8 mph - N/A   Clear
1:36 PM 46.4 °F 43.5 °F 17.6 °F 32% 29.66 in 10.0 mi North 5.8 mph - N/A   Clear
1:56 PM 46.4 °F 43.5 °F 17.6 °F 32% 29.66 in 10.0 mi NE 5.8 mph - N/A   Clear
2:16 PM 46.4 °F 43.5 °F 17.6 °F 32% 29.66 in 10.0 mi NE 5.8 mph - N/A   Clear
2:36 PM 48.2 °F - 17.6 °F 30% 29.65 in 10.0 mi NNW 4.6 mph - N/A   Clear
2:56 PM 48.2 °F - 17.6 °F 30% 29.65 in 10.0 mi North 5.8 mph - N/A   Clear
3:16 PM 48.2 °F - 17.6 °F 30% 29.65 in 10.0 mi NE 3.5 mph - N/A   Clear
3:36 PM 48.2 °F - 17.6 °F 30% 29.64 in 10.0 mi NNE 5.8 mph - N/A   Clear
3:56 PM 48.2 °F - 17.6 °F 30% 29.65 in 10.0 mi East 6.9 mph - N/A   Clear
4:16 PM 50.0 °F - 15.8 °F 26% 29.65 in 10.0 mi East 5.8 mph - N/A   Clear
4:36 PM 50.0 °F - 17.6 °F 28% 29.63 in 10.0 mi East 11.5 mph 16.1 mph N/A   Clear
4:56 PM 48.2 °F - 17.6 °F 30% 29.63 in 10.0 mi SE 12.7 mph - N/A   Clear
5:16 PM 48.2 °F - 19.4 °F 32% 29.63 in 10.0 mi ESE 11.5 mph - N/A   Clear
5:36 PM 48.2 °F - 17.6 °F 30% 29.62 in 10.0 mi ESE 13.8 mph - N/A   Clear
5:56 PM 48.2 °F - 19.4 °F 32% 29.62 in 10.0 mi ESE 15.0 mph - N/A   Clear
6:16 PM 48.2 °F - 19.4 °F 32% 29.62 in 10.0 mi ESE 13.8 mph - N/A   Clear
6:36 PM 48.2 °F - 21.2 °F 34% 29.62 in 10.0 mi ESE 10.4 mph - N/A   Clear
6:56 PM 46.4 °F 41.1 °F 21.2 °F 37% 29.61 in 10.0 mi ESE 11.5 mph - N/A   Clear
7:16 PM 46.4 °F 41.5 °F 21.2 °F 37% 29.60 in 10.0 mi East 10.4 mph - N/A   Clear
7:36 PM 46.4 °F 41.9 °F 23.0 °F 40% 29.60 in 10.0 mi ESE 9.2 mph - N/A   Clear
7:56 PM 46.4 °F 42.4 °F 21.2 °F 37% 29.61 in 10.0 mi ESE 8.1 mph - N/A   Clear
8:16 PM 44.6 °F 39.7 °F 24.8 °F 46% 29.60 in 10.0 mi ESE 9.2 mph - N/A   Clear
8:36 PM 44.6 °F 40.7 °F 24.8 °F 46% 29.60 in 10.0 mi East 6.9 mph - N/A   Mostly Cloudy
8:56 PM 42.8 °F 38.6 °F 24.8 °F 49% 29.60 in 10.0 mi East 6.9 mph - N/A   Overcast
9:16 PM 42.8 °F 38.0 °F 26.6 °F 53% 29.61 in 10.0 mi ESE 8.1 mph - N/A   Overcast
9:36 PM 42.8 °F 38.6 °F 28.4 °F 57% 29.62 in 10.0 mi East 6.9 mph - N/A   Overcast
9:56 PM 42.8 °F 39.3 °F 26.6 °F 53% 29.62 in 10.0 mi East 5.8 mph - N/A   Overcast
10:16 PM 41.0 °F 35.8 °F 30.2 °F 65% 29.62 in 10.0 mi ENE 8.1 mph - N/A   Overcast
10:36 PM 41.0 °F 39.0 °F 32.0 °F 70% 29.62 in 10.0 mi NE 3.5 mph - N/A   Overcast
10:56 PM 41.0 °F 39.0 °F 30.2 °F 65% 29.62 in 10.0 mi NE 3.5 mph - N/A   Overcast
11:16 PM 39.2 °F 34.2 °F 33.8 °F 81% 29.61 in 10.0 mi ENE 6.9 mph - N/A   Overcast
11:36 PM 39.2 °F - 32.0 °F 75% 29.60 in 10.0 mi Calm Calm - N/A   Overcast
11:56 PM 39.2 °F - 33.8 °F 81% 29.60 in 10.0 mi Calm Calm - N/A   Overcast